Simultaneous Nadir Overpasses (SNOs) Predictions

Prediction of SNOs near equator between AQUA and NPP Satellite Orbit:

Table of predicted SNOs near equator for the next 14.0 days since TLE Epoch: 4/10/2020
Index Date (AQUA) Time (AQUA) AQUA Lat,Lon Date (NPP) Time (NPP) NPP Lat,Lon Distance(km) Time Diff (sec)
1 04/11/2020 16:26:07 -6.14, 136.53 04/11/2020 16:16:09 -6.08, 136.20 37.32 598
2 04/11/2020 17:14:22 1.56, -54.87 04/11/2020 17:05:39 1.40, -55.46 67.43 523
3 04/11/2020 18:02:29 2.99, 113.75 04/11/2020 17:55:02 3.15, 112.89 97.13 447
4 04/14/2020 08:42:11 -4.64,-107.27 04/14/2020 08:32:38 -4.53,-107.68 47.31 573
5 04/14/2020 09:30:25 -0.00, 61.34 04/14/2020 09:22:08 -0.14, 60.66 77.22 497
6 04/17/2020 00:16:16 29.94,-164.87 04/17/2020 00:06:16 30.59,-165.58 99.42 600
7 04/17/2020 00:58:12 -3.03, 8.95 04/17/2020 00:49:05 -2.92, 8.45 57.09 547
8 04/17/2020 01:46:27 -1.56, 177.55 04/17/2020 01:38:35 -1.75, 176.79 87.02 472
9 04/19/2020 16:26:08 6.03, -43.46 04/19/2020 16:16:11 5.94, -43.78 37.02 597
10 04/19/2020 17:14:15 -1.49, 125.16 04/19/2020 17:05:34 -1.38, 124.57 67.09 521
11 04/19/2020 18:02:30 -3.10, -66.24 04/19/2020 17:55:04 -3.29, -67.09 96.74 446
12 04/22/2020 08:42:10 4.43, 72.76 04/22/2020 08:32:39 4.34, 72.35 46.86 571
13 04/22/2020 09:30:18 0.04,-118.63 04/22/2020 09:22:02 0.22,-119.30 77.03 496




NCC Satellite Simultaneous Nadir Overpasses (SNOs) Prediction Service
